SHIJIAN 6 01B (SJ-6 01B)

导读 | 豆包AI

**实践六号01B(SJ-6 01B)** 是中国于北京时间2004年9月8日8时在太原卫星发射中心,由长征四号乙运载火箭发射升空的技术试验卫星,由东方红卫星公司研制,属于中国实践卫星系列。卫星运行在近地点593公里、远地点602公里的太阳同步轨道,轨道倾角97.7°,设计寿命2年,主要开展空间环境探测与航天技术试验。

基本信息
目录编号:
28414
目录名称:
SHIJIAN 6 01B (SJ-6 01B)
国际标识:
2004-035B
轨道中心:
EARTH
卫星名称:
SHIJIAN 6 01B (SJ-6 01B)
卫星全名:
--
卫星状态:
在轨 (已飞行7846 天)
发射日期:
2004-09-08 UTC
国别 :
中国 (CN)
星等 :
--
轨道信息
数据来源 国际轨道数据
星历时间: 2026-03-03T20:53:11+0800
10小时前
查看轨道信息
半长轴: 6927.803km
偏心率: 0.0005745
轨道倾角: 97.613°
近地点辐角 130.367°
升交点赤经 81.772°
平近点角 229.806°
近地点: 545.685km
远地点: 553.647km
周期: 95.643分钟
每日圈数: 15.055998
详细信息
使用方式:
暂无
2D轨道图
3D轨道图
轨道高度分析图
轨道倾角分析图
轨道综合分析图
查看轨道综合分析图